Simultaneous Nadir Overpasses (SNOs) Predictions

Prediction of SNOs between FY3D and TERRA Satellite Orbit:

Table of predicted SNOs for the next 14.0 days since TLE Epoch: 3/20/2021
Index Date (FY3D) Time (FY3D) Lat,Lon (FY3D) SZA (FY3D ) Date (TERRA) Time (TERRA) Lat,Lon (TERRA) SZA (TERRA ) Distance(km) Time Diff (sec)
1 03/21/2021 02:23:19 -69.52, -36.27 110.86 03/21/2021 02:24:19 -69.53, -36.28 110.86 1.12 60
2 03/21/2021 03:14:02 69.40, 131.21 69.01 03/21/2021 03:13:46 69.42, 131.23 69.03 2.90 16
3 03/21/2021 04:04:35 -68.83, -60.68 111.59 03/21/2021 04:03:24 -68.86, -61.86 111.53 47.60 71
4 03/23/2021 18:39:39 -69.51, 79.67 111.93 03/23/2021 18:40:46 -69.52, 79.60 111.92 3.14 67
5 03/23/2021 19:30:22 69.39,-112.85 67.95 03/23/2021 19:30:13 69.41,-112.90 67.96 2.99 9
6 03/23/2021 20:20:59 -69.03, 54.98 112.44 03/23/2021 20:19:47 -69.08, 54.30 112.38 27.49 72
7 03/26/2021 10:56:00 -69.56,-164.47 112.93 03/26/2021 10:57:12 -69.57,-164.46 112.93 1.03 72
8 03/26/2021 11:46:43 69.44, 3.01 66.94 03/26/2021 11:46:39 69.45, 3.03 66.95 1.39 4
9 03/26/2021 12:37:23 -69.24, 170.62 113.28 03/26/2021 12:36:10 -69.29, 170.45 113.23 8.72 73
10 03/29/2021 03:12:25 -69.82, -48.92 113.72 03/29/2021 03:13:36 -69.72, -48.38 113.83 23.65 71
11 03/29/2021 04:03:03 69.44, 118.94 65.89 03/29/2021 04:03:06 69.44, 118.89 65.88 2.35 3
12 03/29/2021 04:53:45 -69.34, -73.59 114.23 03/29/2021 04:52:36 -69.33, -73.62 114.24 1.63 69
13 03/31/2021 19:28:48 -70.03, 66.70 114.54 03/31/2021 19:29:58 -69.91, 67.78 114.67 43.01 70
14 03/31/2021 20:19:22 69.45,-125.13 64.86 03/31/2021 20:19:31 69.47,-125.19 64.88 3.34 9
15 03/31/2021 21:10:04 -69.34, 42.34 115.27 03/31/2021 21:09:01 -69.37, 42.31 115.24 2.81 63



Historial Predications of SNOs between FY3D and TERRA
